Temperature
9 7 6 7 8 7 7 6 6 7 9 8 8 8 9 10 10 9 10 9 10 10 10 11 11 11 11 11 11 11 11 11 12 12 12 13 13 13 13 13 13 13 13 13
8 7 8 9 8 7 7 6 6 7 9 8 7 8 8 9 9 9 9 9 9 9 9 10 10 10 10 10 10 10 11 11 11 12 12 12 13 13 13 13 13 13 13 13
7 8 9 8 7 6 6 6 6 6 7 7 7 7 8 9 9 9 9 8 8 8 9 9 9 9 9 10 10 10 10 11 11 11 12 12 12 12 12 13 13 13 13 13
7 8 8 7 6 6 5 7 7 6 5 5 6 5 7 8 8 8 8 8 7 7 7 8 8 8 9 9 9 9 10 10 11 11 11 12 12 12 12 12 13 12 12 13
6 7 7 6 7 7 6 7 6 6 5 4 5 5 6 7 7 7 7 7 7 6 6 7 7 8 8 8 9 9 9 10 11 11 11 12 12 12 12 12 12 12 12 12
7 8 8 7 7 7 7 6 6 6 5 4 6 6 5 6 6 6 6 6 6 6 6 6 7 7 7 8 8 9 9 10 10 10 11 11 12 12 12 12 12 12 12 12
6 8 8 7 6 6 6 3 3 3 3 4 7 6 5 6 6 6 6 6 6 5 5 6 6 6 7 7 7 8 8 9 10 10 10 11 11 11 12 12 12 11 11 12
4 5 7 6 5 5 4 4 2 2 3 5 6 6 6 7 7 7 6 6 5 5 5 5 5 5 6 6 6 7 8 8 9 10 10 11 11 11 11 11 12 11 12 12
3 4 7 7 6 5 4 4 4 3 2 3 5 6 6 7 6 6 5 5 5 5 5 4 4 5 5 6 6 6 7 8 9 9 10 10 10 11 11 11 11 11 12 12
3 2 4 6 6 5 5 4 3 2 2 2 4 4 4 5 5 5 5 4 4 4 4 4 4 4 4 5 5 6 7 7 8 9 9 10 10 10 11 11 11 11 11 12
3 1 3 4 4 3 4 3 3 2 2 2 2 3 5 4 4 4 4 4 4 4 3 4 4 4 4 4 5 5 6 7 7 8 9 9 10 10 10 11 11 11 11 12
3 2 1 3 5 5 4 3 2 1 1 2 2 3 6 5 5 4 4 4 4 4 3 3 3 3 3 4 4 5 6 6 7 8 8 9 9 10 10 11 11 11 11 12
2 1 0 2 3 3 2 2 2 1 1 1 1 3 5 5 4 5 4 4 4 3 3 3 3 3 3 3 3 4 5 6 6 7 8 8 9 9 10 10 11 11 11 11
3 1 0 1 2 2 1 1 2 1 0 1 1 2 4 4 4 4 4 4 3 3 3 2 2 2 2 2 3 3 4 5 6 7 7 8 8 9 9 10 10 10 11 11
2 0 1 2 3 3 2 2 2 1 1 0 1 2 3 3 3 3 4 3 3 3 2 2 2 2 2 2 2 3 4 5 5 6 7 7 8 8 9 9 10 10 10 11
1 0 1 1 3 3 3 3 2 2 2 2 2 2 4 4 4 3 3 3 3 2 2 2 2 1 1 1 2 2 3 4 5 5 6 6 7 8 8 9 9 10 10 10
0 -0 -0 0 2 2 1 2 3 2 3 2 2 2 3 3 3 3 3 3 2 2 2 2 1 1 1 1 1 2 2 4 4 5 5 6 6 7 8 8 9 9 9 10
0 -0 -0 -0 0 -1 2 4 4 3 3 3 3 3 3 3 3 3 3 2 2 2 1 1 1 1 1 1 1 2 2 3 4 4 5 5 6 7 7 8 8 9 9 9
1 -0 -0 -1 -1 0 2 4 3 2 1 2 2 2 3 3 3 3 3 2 2 1 1 1 1 1 1 1 1 2 2 3 3 4 4 5 5 6 7 7 8 8 9 9
1 0 -1 -1 -1 -0 2 4 3 2 -0 2 2 2 2 2 -0 1 2 2 1 1 1 0 1 1 1 1 1 1 2 2 3 3 4 5 5 6 6 7 7 8 8 8
-1 -1 -1 -1 -1 0 3 3 3 -0 -0 3 3 2 2 1 1 2 1 1 1 0 0 0 0 0 0 0 1 1 1 2 2 3 4 4 5 5 6 6 7 7 8 8
-1 -1 -1 -1 -1 -0 3 2 1 1 3 3 2 2 2 2 1 1 1 1 0 0 -0 -0 -0 0 0 0 0 1 1 1 2 3 3 4 4 5 6 6 7 7 7 8
0 -0 -0 -0 0 2 4 3 3 3 2 2 2 2 1 1 1 0 0 0 -0 -0 -0 -0 -0 -0 -0 -0 -0 0 1 1 2 2 3 3 4 5 5 6 6 7 7 7
1 1 0 -0 1 2 3 3 3 2 2 2 1 1 1 0 0 -0 -0 -1 -1 -1 -1 -1 -1 -1 -1 -0 -0 -0 0 1 1 2 2 3 3 4 5 5 6 6 6 7
1 1 -0 -1 0 1 2 2 2 2 1 1 1 0 0 -0 -1 -1 -1 -1 -1 -1 -1 -1 -1 -1 -1 -1 -1 -0 -0 0 1 1 2 2 3 3 4 5 5 6 6 7
1 1 -0 -0 1 0 1 2 2 1 1 0 -0 -0 -1 -1 -1 -1 -1 -1 -2 -2 -2 -2 -2 -2 -1 -1 -1 -1 -1 -0 0 1 1 2 2 3 3 4 5 5 6 6
Wind_Speed
3 4 5 7 8 11 13 15 19 21 18 16 19 22 20 16 12 10 10 10 12 12 12 10 8 7 7 7 7 9 9 9 9 9 10 10 11 11 11 12 14 17 17 19
5 6 7 9 10 12 13 15 17 17 16 17 18 22 18 12 9 8 8 8 10 12 10 8 6 6 7 8 8 9 9 9 9 10 10 9 10 10 11 11 13 16 17 18
8 7 8 10 11 12 13 13 15 19 21 14 14 13 11 8 6 6 7 8 9 11 10 8 6 7 6 7 8 9 9 9 9 10 8 8 9 9 9 12 13 14 16 17
7 7 8 10 11 11 12 12 16 19 15 9 7 9 9 8 7 8 8 8 9 11 10 9 6 6 6 6 6 8 8 7 7 7 9 11 11 11 11 11 12 14 16 17
7 7 8 10 11 11 10 14 17 19 16 13 10 7 7 7 8 8 9 9 10 11 11 10 7 6 6 6 6 6 7 6 5 5 8 11 11 8 9 11 13 14 14 15
12 10 6 6 8 9 11 12 15 12 7 6 6 6 5 5 8 9 10 10 11 12 12 10 8 7 7 6 6 5 6 6 5 5 7 9 11 11 13 14 14 13 12 13
8 7 4 2 6 6 8 7 5 5 3 5 6 4 2 4 6 7 9 11 11 11 11 11 10 9 8 7 7 6 6 6 5 5 7 8 10 12 14 14 14 14 12 12
6 6 2 1 3 5 6 4 3 4 5 8 7 3 1 4 6 8 9 10 11 12 11 11 11 8 8 8 7 7 6 6 5 5 6 6 8 9 10 13 13 14 12 12
4 6 5 6 5 3 4 3 4 5 8 7 5 3 3 6 8 9 11 12 13 13 12 12 11 11 10 9 8 7 6 6 5 5 4 5 7 8 9 12 13 12 11 12
4 7 8 6 3 5 5 4 3 3 5 6 6 5 4 8 10 12 12 12 13 14 13 11 11 11 10 9 9 7 6 6 5 4 4 4 5 7 8 9 13 13 13 13
3 5 7 5 4 5 3 3 3 4 5 5 6 4 3 5 7 9 10 11 12 12 12 11 11 10 10 10 9 8 7 6 5 4 3 4 5 6 8 9 10 11 12 15
3 4 7 9 7 3 3 4 3 3 6 5 6 6 3 4 6 7 9 10 10 10 10 11 11 10 10 10 10 9 8 7 5 4 3 3 3 6 8 9 10 11 11 13
3 3 5 5 2 1 2 5 6 5 5 7 7 7 4 5 7 8 9 9 10 11 11 11 11 10 10 10 10 10 8 8 6 4 3 3 3 4 6 8 9 11 11 11
5 6 9 10 8 5 8 9 8 7 7 9 12 15 13 10 10 10 10 9 10 10 10 11 10 10 10 10 10 11 10 9 7 5 4 3 3 3 4 5 8 10 11 11
5 7 11 16 18 16 16 15 13 14 14 13 15 18 17 11 9 10 10 10 10 11 11 11 11 10 10 11 11 11 11 9 8 6 4 4 3 3 3 4 6 7 10 12
6 7 9 14 16 16 19 18 16 16 16 18 19 21 14 10 8 9 10 9 9 10 10 10 11 11 10 10 11 11 11 9 8 7 5 4 4 3 3 3 5 7 8 10
6 5 5 9 11 12 13 13 14 13 12 12 15 15 10 10 9 8 8 6 8 9 9 9 9 10 9 9 10 10 11 9 7 7 6 4 4 4 3 2 4 6 7 8
8 7 5 6 7 10 9 4 6 9 11 11 11 10 8 8 8 8 5 5 7 9 9 9 8 9 9 9 9 9 10 8 7 6 7 5 4 4 4 3 3 4 5 6
12 9 5 4 7 11 10 7 6 6 10 8 9 9 8 7 8 6 2 4 5 7 7 7 8 8 9 9 9 9 9 8 7 7 7 7 5 5 4 4 3 3 4 5
10 10 7 6 7 8 6 1 3 0 7 5 5 6 6 5 6 5 5 6 6 7 6 7 8 8 9 9 9 9 8 8 7 7 7 7 6 5 5 5 3 2 3 5
8 8 13 12 9 9 7 4 5 3 6 2 2 4 4 5 6 6 6 6 6 7 7 8 8 7 8 8 8 9 8 8 7 7 8 7 7 6 5 4 3 2 3 4
11 8 9 8 10 11 5 6 6 6 2 2 3 4 5 6 7 6 6 7 7 7 8 8 7 7 7 7 8 8 9 9 8 7 7 8 7 6 4 3 2 3 4 5
11 11 6 10 10 5 4 6 5 3 4 5 5 5 6 7 7 7 7 7 7 7 7 7 7 8 7 7 7 8 9 9 8 7 7 7 7 6 4 3 2 2 4 4
7 8 7 7 9 9 8 6 5 6 6 6 6 6 6 7 7 7 7 7 7 7 7 6 7 8 8 8 8 8 8 8 7 7 7 7 6 5 3 2 2 2 3 4
7 5 7 11 10 9 10 8 7 6 6 6 6 6 7 7 7 7 7 7 6 6 5 6 6 7 9 9 9 8 8 8 7 7 7 7 5 4 3 2 2 2 3 4
9 10 10 10 7 6 6 5 5 5 5 5 6 7 6 6 6 6 6 6 6 5 6 6 7 7 8 9 9 8 7 7 7 7 6 5 4 3 2 2 2 2 2 2
Wind_Direction
264 263 276 291 296 294 297 295 296 298 303 304 295 292 295 290 288 291 294 297 297 289 284 275 271 263 262 263 259 247 243 232 220 211 205 196 186 182 180 177 175 172 169 167
294 268 291 310 309 303 299 295 296 303 312 309 295 291 290 289 291 293 303 307 311 304 302 295 291 286 260 251 253 253 245 233 228 218 204 197 186 181 183 175 175 173 172 170
283 288 315 311 308 304 299 294 302 307 313 298 290 289 285 293 308 324 326 325 327 321 315 307 300 298 278 252 247 249 249 233 231 223 200 191 179 174 181 178 175 177 174 172
284 291 303 303 301 306 297 300 304 303 305 295 300 299 299 316 334 342 341 346 342 337 329 321 314 312 299 278 262 252 256 241 236 223 202 190 185 185 185 179 175 175 176 172
279 292 298 295 301 305 295 303 298 289 283 283 275 266 289 329 336 341 351 352 347 340 332 327 319 314 311 303 282 263 263 254 243 232 212 193 186 185 175 174 174 178 179 173
268 270 276 290 303 301 309 311 297 277 265 270 263 260 302 339 342 349 355 352 349 345 338 335 331 323 325 327 314 271 260 258 247 238 221 193 181 181 177 174 177 179 178 174
296 267 234 299 315 309 328 333 327 328 274 259 310 288 298 360 6 4 355 354 353 352 348 346 345 344 336 330 325 303 275 269 261 244 228 198 186 185 182 177 178 179 177 177
306 299 280 309 298 303 301 303 306 300 291 305 310 276 309 20 19 17 7 358 355 354 350 347 347 344 342 337 330 323 304 284 268 249 226 204 199 190 184 183 179 181 182 179
292 284 308 306 292 286 294 282 276 273 279 279 271 280 296 356 10 12 7 2 356 353 350 350 348 347 344 338 332 324 317 302 280 266 232 208 207 197 189 185 180 182 182 178
269 282 285 286 276 235 249 300 319 290 295 290 288 288 310 356 0 0 359 356 352 353 350 347 346 344 342 337 332 326 324 310 297 285 237 224 222 202 189 188 184 182 182 177
248 263 284 277 227 246 233 253 263 268 269 286 296 290 336 2 356 350 349 349 345 346 347 346 344 343 341 341 340 337 331 326 316 307 266 224 223 213 193 189 186 182 182 179
233 257 272 262 254 228 217 231 227 255 274 266 280 279 313 349 353 350 343 339 338 343 346 345 344 342 344 343 343 339 334 328 315 307 288 244 224 215 198 191 189 185 184 182
221 239 287 287 232 180 243 241 246 252 267 260 265 272 301 335 343 342 338 336 341 344 346 347 348 347 345 341 341 341 336 332 324 316 314 268 242 216 206 197 191 190 185 182
229 225 225 249 268 279 271 266 251 242 251 263 257 274 290 311 323 329 331 334 337 339 344 346 345 346 345 343 340 337 336 335 333 325 335 299 252 233 218 206 197 193 186 182
221 248 248 259 270 272 267 263 249 238 239 251 266 274 283 296 308 316 322 325 330 333 341 343 342 342 344 344 339 336 334 335 335 331 322 310 293 262 229 214 203 197 190 184
214 253 271 269 268 267 267 261 254 248 246 249 262 270 279 292 301 305 310 316 326 331 336 340 340 340 341 340 336 334 330 332 336 334 321 317 317 302 254 222 209 198 191 185
210 230 260 270 282 289 265 247 241 240 240 245 256 265 291 298 300 303 305 313 322 324 328 333 332 332 333 332 328 327 327 331 336 332 324 322 325 315 299 251 210 194 189 188
217 226 247 272 284 253 251 228 228 246 253 249 258 270 280 287 298 294 292 320 321 321 325 328 330 329 327 326 327 326 326 328 334 335 333 327 335 320 309 276 228 200 188 188
210 214 236 250 260 270 270 246 223 235 263 253 256 269 283 296 301 290 312 330 314 316 321 322 321 320 321 323 326 324 327 326 332 336 330 327 323 315 307 281 243 211 191 193
205 204 223 238 251 257 261 110 104 24 275 256 248 267 283 301 293 287 328 333 328 328 324 320 318 318 320 322 325 324 324 325 328 328 322 321 316 306 290 270 258 235 198 194
189 208 222 235 248 262 261 157 120 210 252 300 274 270 274 267 258 292 323 325 322 318 317 317 317 317 317 320 324 323 321 320 318 318 318 322 314 304 291 273 245 219 207 185
191 202 210 216 234 249 214 155 190 226 274 293 298 294 289 287 292 303 308 310 312 313 313 315 315 313 315 320 324 319 318 317 315 316 317 318 312 307 301 283 252 209 198 183
201 203 206 210 225 239 201 207 217 241 270 277 281 285 287 289 291 296 298 301 303 305 308 310 309 310 312 318 320 313 314 317 317 315 313 311 308 305 301 284 254 217 198 187
224 207 229 249 250 259 268 264 252 250 258 268 278 284 287 285 286 290 292 293 297 300 305 310 312 312 314 317 316 310 313 315 316 312 309 307 305 302 300 296 251 222 209 195
228 210 232 248 258 271 263 258 260 264 265 269 276 279 278 279 283 287 290 290 291 298 303 307 307 307 308 313 312 314 317 318 315 310 305 301 298 305 299 299 266 238 228 209
224 228 232 244 236 238 257 260 266 270 269 271 275 280 280 273 277 285 289 291 294 295 296 298 299 302 306 309 309 312 315 315 311 308 308 300 296 305 302 309 326 306 243 223
Height
1473 1475 1473 1469 1467 1465 1463 1461 1456 1446 1439 1438 1433 1425 1418 1413 1410 1408 1406 1404 1402 1399 1397 1396 1396 1396 1396 1397 1398 1400 1402 1404 1406 1409 1410 1412 1416 1422 1428 1434 1439 1445 1450 1455
1472 1471 1467 1465 1464 1463 1461 1459 1453 1442 1437 1436 1429 1420 1413 1407 1405 1404 1402 1400 1398 1395 1393 1391 1390 1391 1391 1392 1393 1395 1396 1398 1400 1402 1404 1405 1410 1416 1421 1427 1433 1438 1444 1449
1472 1467 1464 1464 1463 1462 1459 1457 1451 1445 1438 1432 1428 1417 1407 1402 1401 1399 1399 1398 1395 1393 1390 1388 1386 1385 1386 1387 1388 1390 1391 1392 1394 1397 1399 1401 1405 1410 1415 1420 1426 1433 1438 1444
1468 1464 1464 1463 1462 1461 1459 1451 1448 1444 1444 1438 1430 1428 1408 1403 1399 1397 1396 1395 1394 1391 1389 1386 1384 1383 1382 1383 1384 1385 1386 1387 1388 1390 1391 1393 1396 1401 1407 1413 1420 1428 1433 1439
1468 1463 1463 1463 1460 1458 1454 1449 1445 1440 1439 1437 1427 1428 1411 1403 1401 1399 1398 1396 1394 1392 1388 1385 1383 1381 1380 1380 1380 1380 1381 1382 1383 1384 1386 1388 1392 1398 1404 1410 1414 1422 1428 1433
1464 1461 1460 1459 1457 1455 1452 1448 1441 1433 1434 1439 1422 1422 1414 1408 1406 1401 1399 1397 1394 1391 1387 1383 1380 1379 1377 1376 1376 1377 1377 1377 1379 1381 1382 1383 1387 1393 1399 1403 1409 1416 1422 1428
1463 1456 1455 1457 1457 1454 1455 1458 1457 1450 1443 1432 1412 1414 1415 1408 1404 1402 1400 1398 1395 1391 1387 1382 1378 1376 1375 1373 1373 1373 1373 1374 1375 1377 1378 1379 1384 1389 1393 1398 1404 1410 1415 1421
1472 1464 1455 1455 1458 1459 1457 1458 1466 1466 1450 1430 1416 1415 1413 1406 1404 1403 1401 1398 1394 1391 1387 1384 1380 1377 1374 1372 1371 1370 1369 1371 1372 1373 1375 1377 1381 1385 1389 1394 1399 1405 1410 1415
1475 1467 1455 1455 1454 1456 1457 1456 1454 1459 1451 1442 1424 1413 1408 1404 1403 1402 1400 1398 1395 1392 1389 1385 1381 1377 1374 1372 1370 1368 1367 1367 1369 1370 1371 1373 1377 1380 1384 1389 1395 1401 1406 1412
1474 1474 1460 1454 1453 1453 1455 1454 1457 1460 1457 1445 1426 1418 1416 1409 1406 1403 1402 1400 1397 1393 1389 1385 1381 1377 1374 1371 1369 1366 1365 1365 1365 1366 1368 1369 1372 1376 1381 1386 1391 1397 1403 1408
1472 1476 1464 1456 1454 1454 1455 1456 1456 1456 1452 1451 1438 1425 1412 1411 1408 1406 1404 1402 1399 1395 1390 1386 1382 1378 1374 1371 1368 1366 1364 1363 1363 1365 1365 1368 1371 1374 1378 1381 1386 1392 1398 1404
1470 1472 1468 1456 1447 1446 1449 1452 1455 1462 1457 1447 1443 1428 1409 1409 1407 1406 1404 1402 1399 1395 1391 1387 1383 1379 1375 1371 1368 1365 1364 1362 1362 1362 1364 1366 1367 1370 1373 1377 1382 1388 1394 1399
1469 1472 1472 1455 1453 1451 1451 1450 1451 1453 1452 1447 1442 1426 1408 1407 1406 1406 1404 1401 1398 1395 1391 1387 1382 1378 1375 1371 1368 1365 1363 1361 1361 1360 1360 1362 1364 1366 1369 1374 1378 1384 1389 1394
1465 1467 1468 1461 1450 1450 1450 1448 1447 1450 1450 1443 1432 1420 1410 1409 1407 1405 1403 1401 1397 1394 1391 1387 1383 1379 1375 1372 1368 1365 1362 1360 1359 1358 1358 1359 1361 1363 1366 1370 1374 1379 1384 1389
1461 1461 1456 1450 1444 1443 1441 1439 1438 1440 1438 1437 1424 1417 1409 1408 1407 1405 1402 1399 1396 1393 1390 1387 1383 1380 1376 1372 1368 1365 1362 1360 1358 1357 1357 1357 1359 1361 1364 1367 1371 1375 1380 1385
1457 1456 1452 1446 1438 1434 1430 1426 1426 1425 1424 1422 1418 1411 1405 1404 1403 1402 1400 1397 1394 1391 1389 1386 1383 1379 1375 1372 1368 1365 1362 1360 1357 1355 1356 1356 1357 1359 1361 1364 1367 1371 1375 1381
1453 1454 1451 1442 1433 1431 1425 1414 1414 1414 1411 1413 1412 1406 1402 1401 1400 1399 1397 1395 1393 1391 1388 1385 1382 1378 1375 1372 1369 1365 1361 1359 1357 1355 1354 1355 1355 1357 1359 1361 1364 1367 1372 1376
1447 1449 1448 1442 1438 1438 1415 1403 1404 1405 1404 1403 1401 1399 1399 1398 1397 1396 1395 1393 1391 1389 1386 1383 1380 1377 1374 1371 1367 1364 1360 1358 1356 1354 1354 1354 1354 1355 1357 1359 1362 1364 1368 1372
1436 1442 1444 1441 1437 1422 1407 1400 1400 1403 1402 1397 1397 1396 1396 1395 1394 1392 1391 1391 1389 1388 1385 1382 1379 1376 1372 1369 1365 1362 1360 1358 1355 1353 1353 1353 1353 1354 1355 1357 1359 1362 1365 1369
1430 1435 1440 1437 1434 1422 1404 1397 1396 1401 1403 1393 1392 1393 1393 1393 1395 1391 1389 1388 1386 1385 1382 1380 1377 1374 1370 1367 1364 1361 1358 1356 1354 1353 1352 1352 1352 1352 1354 1355 1357 1359 1363 1366
1430 1432 1433 1431 1427 1412 1398 1395 1397 1407 1402 1391 1390 1390 1390 1391 1391 1389 1386 1385 1383 1381 1379 1377 1374 1371 1368 1365 1362 1359 1357 1355 1354 1352 1351 1350 1350 1351 1352 1353 1355 1357 1360 1364
1419 1422 1423 1422 1421 1409 1391 1393 1396 1395 1390 1389 1388 1388 1388 1387 1386 1385 1383 1382 1380 1378 1376 1374 1371 1368 1366 1363 1360 1357 1355 1353 1352 1350 1348 1348 1348 1348 1349 1350 1352 1354 1357 1360
1404 1405 1404 1404 1399 1389 1386 1387 1386 1387 1387 1387 1386 1386 1385 1384 1382 1381 1380 1378 1377 1375 1373 1370 1368 1365 1363 1361 1358 1356 1354 1352 1349 1348 1346 1346 1345 1346 1346 1347 1349 1351 1354 1357
1393 1393 1395 1393 1386 1384 1383 1383 1383 1384 1383 1383 1383 1382 1382 1380 1379 1377 1376 1375 1373 1371 1369 1367 1364 1362 1360 1358 1356 1354 1351 1350 1347 1346 1344 1344 1343 1343 1344 1345 1346 1348 1351 1353
1386 1388 1388 1386 1382 1381 1379 1379 1379 1379 1378 1378 1378 1378 1377 1376 1374 1373 1372 1370 1369 1367 1365 1363 1361 1358 1356 1354 1352 1350 1348 1347 1344 1343 1342 1341 1341 1340 1341 1342 1343 1345 1347 1350
1378 1380 1382 1378 1375 1376 1374 1375 1375 1374 1374 1374 1373 1373 1372 1371 1370 1369 1367 1366 1364 1363 1361 1359 1357 1355 1352 1350 1348 1347 1345 1343 1341 1340 1339 1339 1338 1338 1338 1339 1340 1342 1345 1348